Weather History for Macon, GA

Change the Weather History Date:

Monday, September 24, 2012

  Actual Average Record
Temperature  
Mean Temperature 65 °F 72 °F  
Max Temperature 81 °F 84 °F 96 °F (1961)
Min Temperature 48 °F 61 °F 44 °F (1967)
Degree Days  
Heating Degree Days 0 0  
Month to date heating degree days 0 0  
Since 1 July heating degree days 0 0  
Cooling Degree Days 0 8  
Month to date cooling degree days 267 265  
Year to date cooling degree days 2165 2009  
Growing Degree Days 14 (Base 50)    
Moisture  
Dew Point 49 °F    
Average Humidity 63    
Maximum Humidity 96    
Minimum Humidity 30    
Precipitation  
Precipitation 0.00 in 0.11 in 3.51 in (1914)
Month to date precipitation 1.97 2.94  
Year to date precipitation 25.18 34.88  
Sea Level Pressure  
Sea Level Pressure 30.14 in    
Wind  
Wind Speed 3 mph (NNW)    
Max Wind Speed 12 mph    
Max Gust Speed 15 mph    
Visibility 10 miles    
Events      
T = Trace of Precipitation, MM = Missing Value Source: NWS Daily Summary

Daily Weather History Graph

Daily Weather History Graph

Search for Another Location

Airport:

Trip Planner

Search our weather history database for the weather conditions in past years. The results will help you decide how hot, cold, wet, or windy it might be!

Date:

Astronomy

Sep. 24, 2012 Rise Set
Actual Time 7:24 AM EDT 7:27 PM EDT
Civil Twilight 6:59 AM EDT 7:52 PM EDT
Nautical Twilight 6:31 AM EDT 8:21 PM EDT
Astronomical Twilight 6:02 AM EDT 8:49 PM EDT
Moon 3:58 PM EDT (9/24) 1:55 AM EDT (9/24)
Length of Visible Light 12h 52m
Length of Day
12h 03m
Waxing Gibbous, 70% of the Moon is Illuminated
Sep 24
Waxing Gibbous
Sep 29
Full
Oct 8
Last Quarter
Oct 15
New
Oct 21
First Quarter

Hourly Weather History & Observations

Time (EDT) Temp. Dew Point Humidity Pressure Visibility Wind Dir Wind Speed Gust Speed Precip Events Conditions
12:53 AM 57.9 °F 54.0 °F 87% 30.13 in 10.0 mi West 4.6 mph - N/A   Clear
1:53 AM 55.9 °F 52.0 °F 87% 30.13 in 10.0 mi Calm Calm - N/A   Clear
2:53 AM 53.1 °F 51.1 °F 93% 30.13 in 10.0 mi West 3.5 mph - N/A   Clear
3:53 AM 52.0 °F 50.0 °F 93% 30.12 in 10.0 mi Calm Calm - N/A   Clear
4:53 AM 50.0 °F 48.0 °F 93% 30.12 in 10.0 mi Calm Calm - N/A   Clear
5:53 AM 48.9 °F 46.9 °F 93% 30.13 in 10.0 mi WSW 3.5 mph - N/A   Clear
6:53 AM 48.9 °F 46.0 °F 90% 30.14 in 10.0 mi WNW 3.5 mph - N/A   Clear
7:53 AM 48.9 °F 46.0 °F 90% 30.16 in 10.0 mi Calm Calm - N/A   Clear
8:53 AM 57.0 °F 48.0 °F 72% 30.17 in 10.0 mi NNW 3.5 mph - N/A   Clear
9:53 AM 62.1 °F 45.0 °F 53% 30.17 in 10.0 mi NNE 9.2 mph - N/A   Clear
10:53 AM 66.9 °F 48.0 °F 51% 30.17 in 10.0 mi North 6.9 mph - N/A   Clear
11:53 AM 70.0 °F 48.0 °F 46% 30.17 in 10.0 mi Calm Calm - N/A   Clear
12:53 PM 73.9 °F 48.9 °F 41% 30.16 in 10.0 mi North 8.1 mph - N/A   Clear
1:53 PM 77.0 °F 48.0 °F 36% 30.15 in 10.0 mi North 6.9 mph - N/A   Clear
2:53 PM 79.0 °F 48.0 °F 34% 30.12 in 10.0 mi Variable 5.8 mph - N/A   Clear
3:53 PM 79.0 °F 46.0 °F 31% 30.11 in 10.0 mi Variable 5.8 mph - N/A   Clear
4:53 PM 81.0 °F 46.9 °F 30% 30.10 in 10.0 mi North 5.8 mph - N/A   Clear
5:53 PM 80.1 °F 46.9 °F 31% 30.10 in 10.0 mi Calm Calm - N/A   Clear
6:53 PM 75.0 °F 46.9 °F 37% 30.11 in 10.0 mi NE 3.5 mph - N/A   Clear
7:53 PM 68.0 °F 52.0 °F 56% 30.11 in 10.0 mi North 3.5 mph - N/A   Clear
8:53 PM 63.0 °F 55.0 °F 75% 30.13 in 10.0 mi Calm Calm - N/A   Clear
9:53 PM 60.1 °F 55.9 °F 86% 30.15 in 10.0 mi Calm Calm - N/A   Clear
10:53 PM 57.0 °F 54.0 °F 89% 30.15 in 10.0 mi West 3.5 mph - N/A   Clear
11:53 PM 55.9 °F 53.1 °F 90% 30.15 in 10.0 mi West 3.5 mph - N/A   Clear